Content
SEND FEEDBACK

Daily
Averages
Monthly
Summary
United Kingdom

ASTON, ENGLAND


Home > Europe > United Kingdom > England
Elevation: 364 feet     Latitude: 52 30N     Longitude: 001 54W

WEATHER
 
SELECT A DAY
Number of Records: 287,577;   Date Range: 7/1/96 - 12/25/14
 
SHARE

PRINT THIS DATA

[ ← Previous Day ]
WEATHER ALMANAC - JANUARY 31, 2013
[ Next Day → ]
[ °C ]   °F
Weather ElementAverageHighLow
Temperature45.2 °F48.2 °F (12:20 pm)41 °F (12:50 am)
Dewpoint37.6 °F41 °F (4:20 am)33.8 °F (1:20 pm)
Humidity75.2 %93 % (2:20 am)58 % (1:20 pm)
Barometer29.78 in29.92 in (12:50 am)29.68 in (5:50 am)
Wind Speed15.9 mph25.3 mph (12:20 pm)
Wind Gust39.1 mph (8:50 am)
Weather ElementAverage
Visibility6.1 mi
Wind DirectionSW (226.8 °)

Weather ElementTotal
Precipitation---
Heating Degree Days20.4 (Base 65)
Averaged from 47 records on January 31, 2013
WEATHER CONDITIONS BREAKOUT
WIND DIRECTION BREAKOUT
WEATHER BY HOUR - JANUARY 31, 2013
[ °C ]   °F
Local TimeTemperatureDewpointHumidityBarometerVisibilityWind DirectionWind SpeedGust SpeedPrecipitationEventsConditions
12:50 AM41.0 °F35.6 °F81 %29.92 inSSE (160°)6.9 mphClear
1:20 AM41.0 °F37.4 °F87 %29.89 inSSE (160°)8.1 mphClear
1:50 AM41.0 °F37.4 °F87 %29.89 in6.2 miSE (140°)10.4 mph
2:20 AM41.0 °F39.2 °F93 %29.86 in6.2 miSE (140°)10.4 mph
2:50 AM42.8 °F39.2 °F87 %29.80 in6.2 miSouth (180°)15.0 mph
3:20 AM44.6 °F39.2 °F81 %29.80 in6.2 miSSW (200°)17.3 mph28.8 mphScattered Clouds
3:50 AM44.6 °F39.2 °F81 %29.77 in6.2 miSouth (190°)17.3 mphScattered Clouds
4:20 AM44.6 °F41.0 °F87 %29.74 in5.6 miSSW (200°)18.4 mph31.1 mphRainRain
4:50 AM44.6 °F41.0 °F87 %29.74 in4.3 miSW (230°)15.0 mph26.5 mphRainRain
5:20 AM44.6 °F41.0 °F87 %29.71 in6.2 miSSW (210°)17.3 mph28.8 mphRainLight Rain
5:50 AM44.6 °F39.2 °F81 %29.68 in6.2 miSW (220°)13.8 mphPartly Cloudy
6:20 AM44.6 °F39.2 °F81 %29.68 inSW (230°)18.4 mph31.1 mphClear
6:50 AM44.6 °F39.2 °F81 %29.68 inWSW (240°)13.8 mphClear
7:20 AM44.6 °F39.2 °F81 %29.68 in6.2 miSW (220°)15.0 mphScattered Clouds
7:50 AM44.6 °F39.2 °F81 %29.68 in6.2 miSW (220°)13.8 mphRainLight Rain Showers
8:20 AM44.6 °F41.0 °F87 %29.68 in4.3 miWSW (250°)12.7 mphRainLight Rain Showers
8:50 AM42.8 °F39.2 °F87 %29.71 in6.2 miWSW (250°)20.7 mph39.1 mphScattered Clouds
9:20 AM42.8 °F39.2 °F87 %29.71 inWSW (240°)11.5 mphClear
9:50 AM46.4 °F39.2 °F76 %29.71 in6.2 miWSW (240°)15.0 mphMostly Cloudy
10:20 AM46.4 °F39.2 °F76 %29.74 in6.2 miWest (260°)19.6 mphMostly Cloudy
10:50 AM46.4 °F37.4 °F71 %29.74 in6.2 miWSW (250°)23.0 mph39.1 mphScattered Clouds
11:20 AM46.4 °F35.6 °F66 %29.74 in6.2 miWest (260°)19.6 mph35.7 mphMostly Cloudy
11:50 AM46.4 °F35.6 °F66 %29.77 in6.2 miWSW (250°)21.9 mph34.5 mphMostly Cloudy
12:20 PM48.2 °F35.6 °F62 %29.77 in6.2 miWest (260°)25.3 mph39.1 mphScattered Clouds
12:50 PM48.2 °F35.6 °F62 %29.77 in6.2 miWSW (250°)23.0 mphScattered Clouds
1:20 PM48.2 °F33.8 °F58 %29.80 in6.2 miWest (260°)25.3 mphMostly Cloudy
1:50 PM48.2 °F33.8 °F58 %29.80 in6.2 miWest (260°)23.0 mph36.8 mphMostly Cloudy
2:20 PM48.2 °F35.6 °F62 %29.80 in6.2 miWSW (250°)21.9 mph35.7 mphMostly Cloudy
2:50 PM48.2 °F35.6 °F62 %29.77 in6.2 miWest (260°)23.0 mph35.7 mphScattered Clouds
3:20 PM48.2 °F35.6 °F62 %29.80 in6.2 miWSW (250°)23.0 mph35.7 mphMostly Cloudy
3:50 PM48.2 °F35.6 °F62 %29.80 in6.2 miWest (260°)23.0 mphMostly Cloudy
4:20 PM48.2 °F35.6 °F62 %29.80 in6.2 miWest (260°)18.4 mphScattered Clouds
4:50 PM46.4 °F35.6 °F66 %29.80 in6.2 miWest (260°)16.1 mphPartly Cloudy
5:20 PM46.4 °F35.6 °F66 %29.83 in6.2 miWSW (240°)13.8 mphPartly Cloudy
5:50 PM46.4 °F35.6 °F66 %29.83 in6.2 miWSW (240°)13.8 mphScattered Clouds
6:20 PM46.4 °F35.6 °F66 %29.83 inSW (230°)12.7 mphClear
6:50 PM44.6 °F37.4 °F76 %29.83 in6.2 miSW (230°)11.5 mphPartly Cloudy
7:20 PM44.6 °F37.4 °F76 %29.83 inSW (230°)11.5 mphClear
7:50 PM44.6 °F37.4 °F76 %29.83 inSW (230°)11.5 mphClear
8:20 PM44.6 °F37.4 °F76 %29.83 inSW (220°)10.4 mphClear
8:50 PM44.6 °F39.2 °F81 %29.83 inSW (220°)12.7 mphClear
9:20 PM44.6 °F37.4 °F76 %29.83 in6.2 miSW (220°)12.7 mphPartly Cloudy
9:50 PM44.6 °F37.4 °F76 %29.83 inSW (220°)12.7 mphClear
10:20 PM44.6 °F37.4 °F76 %29.80 inSW (230°)11.5 mphClear
10:50 PM44.6 °F37.4 °F76 %29.80 inSSW (210°)11.5 mphClear
11:20 PM44.6 °F37.4 °F76 %29.77 inSSW (210°)11.5 mphClear
11:50 PM44.6 °F37.4 °F76 %29.77 inSW (220°)10.4 mphClear
Hourly data recorded from EGBB, located miles away from Aston, England







STORIES FROM OUR PARTNERS